Point Perpendicular Observation History
Time Wind Speed Temp Pressure Rel. Hum Rain
04/04:08am SW 15-25 kts 12.7°c 1029.8 hPa 66% 0.0mm
04/04:00am SW 15-24 kts 12.7°c 1029.8 hPa 66% 0.0mm
04/03:30am SSW 15-22 kts 12.7°c 1029.7 hPa 60% 0.0mm
04/03:17am SW 15-26 kts 12.3°c 1029.6 hPa 66% 0.0mm
04/03:00am SW 12-22 kts 12.8°c 1029.5 hPa 62% 0.0mm
04/02:30am SW 15-25 kts 12.9°c 1029.4 hPa 61% 0.0mm
04/02:00am SSW 16-27 kts 13.2°c 1029.2 hPa 60% 0.0mm
04/01:32am SW 15-25 kts 13.1°c 1029.6 hPa 67% 0.0mm
04/01:30am SW 16-25 kts 13.1°c 1029.4 hPa 62% 0.0mm
04/01:00am SSW 17-25 kts 13.3°c 1029.0 hPa 60% 0.0mm
04/12:33am SSW 15-25 kts 13.2°c 1029.4 hPa 59% 0.0mm
04/12:30am SSW 16-25 kts 13.4°c 1029.3 hPa 62% 0.0mm
04/12:00am SSW 17-26 kts 13.5°c 1029.1 hPa 58% 0.0mm
Time Wind Speed Temp Pressure Rel. Hum Rain
03/11:30pm SSW 17-25 kts 13.3°c 1028.8 hPa 60% 0.0mm
03/11:00pm SSW 18-28 kts 13.5°c 1028.8 hPa 63% 0.0mm
03/10:30pm SSW 20-30 kts 13.4°c 1028.8 hPa 60% 0.0mm
03/10:19pm SSW 19-30 kts 13.6°c 1028.8 hPa 60% 0.0mm
03/10:00pm SSW 20-28 kts 13.7°c 1028.2 hPa 50% 0.0mm
03/09:47pm SSW 20-30 kts 13.7°c 1028.2 hPa 57% 0.0mm
03/09:30pm SSW 19-27 kts 13.7°c 1028.3 hPa 55% 0.0mm
03/09:10pm SSW 18-28 kts 13.9°c 1028.6 hPa 63% 0.0mm
03/09:00pm SSW 21-29 kts 13.7°c 1028.3 hPa 59% 0.0mm
03/08:30pm SSW 20-30 kts 13.9°c 1027.9 hPa 58% 0.0mm
03/08:00pm SSW 21-33 kts 14.1°c 1027.2 hPa 56% 0.0mm
03/07:31pm S 16-28 kts 14.0°c 1026.9 hPa 60% 0.0mm
03/07:30pm S 16-24 kts 14.1°c 1026.9 hPa 61% 0.0mm
03/07:00pm SSW 19-30 kts 14.0°c 1026.5 hPa 64% 0.0mm
03/06:31pm SSW 18-28 kts 14.2°c 1026.1 hPa 64% 0.0mm
03/06:30pm SSW 19-28 kts 14.2°c 1026.2 hPa 62% 0.0mm
03/06:00pm S 16-26 kts 14.1°c 1025.8 hPa 60% 0.0mm
03/05:30pm SSW 17-29 kts 14.2°c 1025.3 hPa 66% 0.0mm
03/05:00pm S 16-29 kts 14.2°c 1024.8 hPa 67% 0.0mm
03/04:45pm S 17-28 kts 14.1°c 1024.8 hPa 66% 0.0mm
03/04:30pm S 14-24 kts 14.5°c 1024.6 hPa 66% 0.0mm
03/04:06pm SSW 17-28 kts 15.0°c 1024.5 hPa 54% 0.0mm
03/04:00pm SSW 18-26 kts 15.1°c 1024.3 hPa 56% 0.0mm
03/03:36pm SSW 15-25 kts 15.4°c 1024.0 hPa 56% 0.0mm
03/03:30pm SSW 16-22 kts 15.3°c 1024.0 hPa 59% 0.0mm
03/03:00pm SSW 16-24 kts 14.9°c 1023.5 hPa 56% 0.0mm
03/02:30pm SSW 15-22 kts 15.1°c 1023.3 hPa 56% 0.0mm
03/02:00pm SSW 15-22 kts 15.2°c 1022.9 hPa 50% 0.0mm
03/01:30pm SW 15-22 kts 15.1°c 1022.8 hPa 45% 0.0mm
03/01:00pm SSW 15-22 kts 15.3°c 1022.7 hPa 51% 0.0mm
03/12:30pm SSW 17-23 kts 15.1°c 1022.9 hPa 43% 0.0mm
03/12:00pm SW 13-22 kts 15.1°c 1022.8 hPa 46% 0.0mm
03/11:30am SW 14-21 kts 15.0°c 1022.6 hPa 46% 0.0mm
03/11:00am SW 13-21 kts 14.8°c 1022.5 hPa 46% 0.0mm
03/10:30am SW 13-20 kts 14.8°c 1022.5 hPa 49% 0.0mm
03/10:00am SW 13-22 kts 14.8°c 1022.4 hPa 52% 0.0mm
03/09:30am WSW 9-14 kts 14.7°c 1022.1 hPa 57% 0.0mm
03/09:00am WSW 7-12 kts 13.6°c 1021.4 hPa 58% 0.0mm
03/08:30am WSW 6-10 kts 13.6°c 1021.1 hPa 59% 0.0mm
03/08:00am WSW 6-10 kts 12.6°c 1020.6 hPa 64% 0.0mm
03/07:30am WSW 6-11 kts 12.7°c 1019.8 hPa 63% 0.0mm
03/07:00am W 4-10 kts 12.4°c 1018.9 hPa 63% 0.0mm
03/06:30am W 4-7 kts 12.3°c 1018.4 hPa 61% 0.0mm
03/06:00am WNW 5-9 kts 12.6°c 1017.9 hPa 62% 0.0mm
03/05:30am WNW 5-9 kts 12.4°c 1017.5 hPa 62% 0.0mm
03/05:00am WNW 6-14 kts 12.3°c 1016.8 hPa 61% 0.0mm
03/04:30am WNW 5-9 kts 12.6°c 1016.1 hPa 61% 0.0mm
03/04:00am W 4-7 kts 12.4°c 1016.8 hPa 61% 0.0mm
03/03:30am W 5-8 kts 12.4°c 1016.8 hPa 61% 0.0mm
03/03:00am WNW 5-10 kts 12.3°c 1016.6 hPa 62% 0.0mm
03/02:30am WNW 5-10 kts 12.3°c 1016.6 hPa 62% 0.0mm
03/02:00am WNW 5-9 kts 12.2°c 1016.5 hPa 61% 0.0mm
03/01:30am WNW 6-11 kts 12.2°c 1016.2 hPa 63% 0.0mm
03/01:00am WNW 5-15 kts 12.1°c 1016.4 hPa 62% 0.0mm
03/12:30am WNW 5-9 kts 12.1°c 1016.5 hPa 60% 0.0mm
03/12:00am WNW 7-11 kts 11.7°c 1016.5 hPa 63% 0.0mm
Time Wind Speed Temp Pressure Rel. Hum Rain
02/11:30pm WNW 6-12 kts 11.5°c 1016.4 hPa 62% 0.0mm
02/11:00pm WNW 7-11 kts 11.5°c 1016.4 hPa 61% 0.0mm
02/10:30pm WNW 6-10 kts 11.3°c 1016.5 hPa 63% 0.0mm
02/10:00pm W 5-9 kts 11.3°c 1016.7 hPa 64% 0.0mm
02/09:30pm WNW 6-11 kts 11.3°c 1016.5 hPa 64% 0.0mm
02/09:00pm W 3-6 kts 11.2°c 1016.6 hPa 66% 0.0mm
02/08:30pm WNW 5-8 kts 11.3°c 1016.7 hPa 65% 0.0mm
02/08:00pm WNW 5-9 kts 11.3°c 1016.6 hPa 65% 0.0mm
02/07:30pm WNW 7-12 kts 11.4°c 1016.1 hPa 64% 0.0mm
02/07:00pm WNW 6-12 kts 11.9°c 1015.9 hPa 65% 0.0mm
02/06:30pm WNW 6-11 kts 12.2°c 1016.0 hPa 63% 0.0mm
02/06:00pm W 5-9 kts 13.0°c 1015.7 hPa 63% 0.0mm
02/05:30pm WNW 3-6 kts 14.0°c 1015.4 hPa 65% 0.0mm
02/05:00pm WNW 3-6 kts 14.2°c 1015.2 hPa 61% 0.0mm
02/04:30pm WSW 4-10 kts 14.4°c 1015.0 hPa 58% 0.0mm
02/04:00pm SSW 9-15 kts 14.7°c 1014.5 hPa 58% 0.0mm
02/03:30pm SSW 12-19 kts 14.7°c 1014.0 hPa 55% 0.0mm
02/03:00pm SSW 14-22 kts 14.5°c 1014.0 hPa 56% 0.0mm
02/02:30pm SSW 14-21 kts 14.4°c 1013.7 hPa 53% 0.0mm
02/02:00pm SSW 17-24 kts 14.5°c 1013.5 hPa 54% 0.0mm
02/01:30pm SSW 15-25 kts 14.3°c 1013.7 hPa 55% 0.0mm
02/01:25pm SSW 15-25 kts 14.3°c 1013.7 hPa 55% 0.0mm
02/01:00pm SSW 16-24 kts 13.9°c 1013.7 hPa 58% 0.0mm
02/12:30pm SSW 17-23 kts 14.0°c 1013.4 hPa 59% 0.0mm
02/12:00pm SSW 16-22 kts 13.9°c 1013.5 hPa 59% 0.0mm
02/11:30am SW 14-22 kts 14.0°c 1013.7 hPa 62% 0.0mm
02/11:00am SW 13-21 kts 13.5°c 1014.0 hPa 56% 0.0mm
02/10:30am SW 13-22 kts 13.3°c 1014.3 hPa 56% 0.0mm
02/10:00am SW 13-22 kts 13.1°c 1013.6 hPa 58% 0.0mm
02/09:30am WSW 10-15 kts 12.2°c 1013.5 hPa 64% 0.0mm
02/09:00am WSW 7-11 kts 11.6°c 1013.5 hPa 63% 2.0mm
02/08:30am WSW 5-10 kts 11.3°c 1013.0 hPa 66% 2.0mm
02/08:00am W 5-11 kts 11.4°c 1012.7 hPa 68% 2.0mm
02/07:30am W 4-8 kts 10.5°c 1012.5 hPa 70% 2.0mm
02/07:00am WNW 4-8 kts 10.4°c 1012.3 hPa 71% 2.0mm
02/06:30am WNW 6-11 kts 9.8°c 1012.3 hPa 73% 2.0mm
02/06:00am NW 7-11 kts 9.1°c 1012.5 hPa 80% 2.0mm
02/05:30am WNW 5-8 kts 9.2°c 1011.9 hPa 82% 1.8mm
02/05:00am WNW 5-8 kts 8.8°c 1011.5 hPa 85% 1.8mm
02/04:30am W 3-7 kts 9.1°c 1011.5 hPa 82% 1.4mm
02/04:00am W 5-11 kts 10.7°c 1011.2 hPa 64% 0.0mm
02/03:30am W 4-7 kts 10.5°c 1010.8 hPa 62% 0.0mm
02/03:00am W 5-10 kts 10.5°c 1010.5 hPa 62% 0.0mm
02/02:30am W 5-9 kts 10.6°c 1010.3 hPa 58% 0.0mm
02/02:00am W 4-8 kts 10.6°c 1010.5 hPa 60% 0.0mm
02/01:30am WNW 6-10 kts 10.6°c 1010.2 hPa 58% 0.0mm
02/01:00am WNW 5-10 kts 10.7°c 1010.2 hPa 58% 0.0mm
02/12:30am WNW 7-16 kts 10.6°c 1010.4 hPa 61% 0.0mm
02/12:00am WNW 6-11 kts 10.5°c 1010.3 hPa 61% 0.0mm